Hourly Data Report for May 23, 2022

CARBERRY CS
MANITOBA
Current Station Operator: ECCC - MSC

49°54'20.900" N
99°21'26.800" W
383.50 m
5010547
71170
WZE

Download Data

Hourly Data (May 2022)
Hourly Data Report for May 23, 2022
TIME
LST
Temp Definition
°C
Dew Point Definition
°C
Rel Hum Definition
%
Precip. Amount Definition
mm

Wind Dir Definition
10's deg

Wind Spd Definition
km/h
Visibility Definition
km
Stn Press Definition
kPa
Hmdx Definition


Wind Chill Definition


Weather Definition


00:00 7.1 1.1 65 0.0 21 8   97.57     LegendNANA
01:00 6.3 0.9 69 0.0 22 9   97.57     LegendNANA
02:00 5.3 1.3 75 0.0 21 10   97.55     LegendNANA
03:00 5.1 0.8 74 0.0 22 7   97.53     LegendNANA
04:00 4.0 0.5 78 0.0 21 8   97.53     LegendNANA
05:00 4.0 0.3 76 0.0 23 6   97.51     LegendNANA
06:00 4.4 0.6 77 0.0 25 4   97.52     LegendNANA
07:00 8.3 1.7 63 0.0 22 9   97.54     LegendNANA
08:00 11.8 0.9 47 0.0 22 17   97.51     LegendNANA
09:00 14.6 0.8 39 0.0 23 18   97.46     LegendNANA
10:00 15.6 0.8 36 0.0 21 25   97.39     LegendNANA
11:00 15.8 0.2 35 0.0 21 24   97.33     LegendNANA
12:00 16.7 0.4 33 0.0 20 26   97.25     LegendNANA
13:00 17.6 3.2 38 0.0 23 17   97.22     LegendNANA
14:00 17.6 1.2 33 0.0 23 18   97.16     LegendNANA
15:00 16.6 2.5 39 0.0 20 21   97.13     LegendNANA
16:00 16.3 5.1 47 0.0 20 17   97.10     LegendNANA
17:00 15.9 4.1 45 0.0 20 30   97.10     LegendNANA
18:00 17.1 4.5 43 0.0 19 18   97.07     LegendNANA
19:00 16.6 3.5 42 0.0 22 13   97.06     LegendNANA
20:00 14.5 3.6 48 0.0 20 11   97.04     LegendNANA
21:00 11.7 3.8 59 0.0 18 11   97.07     LegendNANA
22:00 10.6 3.2 60 0.0 18 14   97.09     LegendNANA
23:00 10.6 5.5 71 0.0 18 19   97.09     LegendNANA

Notes on Data Quality.

Legend

  • E = Estimated
  • M = Missing
  • NA = Not Available*
  • [empty] = Indicates an unobserved value
Date modified: